Weather History for EGPM - March, 2013

Change the Weather History Date:

Wednesday, March 20, 2013

  Actual Average Record
Temperature  
Mean Temperature 34 °F -  
Max Temperature 37 °F 45 °F 51 °F (2009)
Min Temperature 30 °F 39 °F 30 °F (2013)
Degree Days  
Heating Degree Days 32    
Moisture  
Dew Point 23 °F    
Average Humidity 65    
Maximum Humidity 80    
Minimum Humidity 48    
Precipitation  
Precipitation 0.00 in - - ()
Sea Level Pressure  
Sea Level Pressure 30.04 in    
Wind  
Wind Speed 9 mph ()    
Max Wind Speed 14 mph    
Max Gust Speed -    
Visibility 6.2 miles    
Events Snow    
Averages and records for this station are not official NWS values.
T = Trace of Precipitation, MM = Missing Value Source: Averaged Metar Reports

Daily Weather History Graph

Daily Weather History Graph

Search for Another Location

Airport or City:

Trip Planner

Search our weather history database for the weather conditions in past years. The results will help you decide how hot, cold, wet, or windy it might be!

Date:

Astronomy

Mar. 20, 2013 Rise Set
Actual Time 6:06 AM GMT 6:20 PM GMT
Civil Twilight 5:24 AM GMT 7:02 PM GMT
Nautical Twilight 4:33 AM GMT 7:53 PM GMT
Astronomical Twilight 3:38 AM GMT 8:49 PM GMT
Moon 10:12 AM GMT (3/20) 3:05 AM GMT (3/20)
Length of Visible Light 13h 37m
Length of Day
12h 13m
First Quarter, 57% of the Moon is Illuminated
Mar 20
First Quarter
Mar 27
Full
Apr 3
Last Quarter
Apr 10
New
Apr 18
First Quarter

Hourly Weather History & Observations

Time (GMT) Temp. Windchill Dew Point Humidity Pressure Visibility Wind Dir Wind Speed Gust Speed Precip Events Conditions
12:20 AM 30.2 °F 21.3 °F 24.8 °F 80% 29.89 in 6.2 mi South 10.4 mph - N/A   Unknown
12:50 AM 32.0 °F 23.0 °F 23.0 °F 69% 29.89 in 6.2 mi South 11.5 mph - N/A   Partly Cloudy
1:20 AM 30.2 °F 20.8 °F 23.0 °F 75% 29.89 in 6.2 mi SSE 11.5 mph - N/A   Unknown
1:50 AM 30.2 °F 21.9 °F 23.0 °F 75% 29.92 in 6.2 mi South 9.2 mph - N/A   Unknown
2:20 AM 30.2 °F 21.9 °F 21.2 °F 69% 29.92 in 6.2 mi SSE 9.2 mph - N/A   Mostly Cloudy
2:50 AM 32.0 °F 24.2 °F 21.2 °F 64% 29.92 in 6.2 mi South 9.2 mph - N/A   Mostly Cloudy
3:20 AM 32.0 °F 24.2 °F 23.0 °F 69% 29.92 in 6.2 mi SSE 9.2 mph - N/A   Mostly Cloudy
3:50 AM 32.0 °F 24.8 °F 23.0 °F 69% 29.95 in 6.2 mi SSE 8.1 mph - N/A   Mostly Cloudy
4:20 AM 30.2 °F 22.6 °F 21.2 °F 69% 29.95 in 6.2 mi SSE 8.1 mph - N/A   Mostly Cloudy
4:50 AM 30.2 °F 20.8 °F 21.2 °F 69% 29.95 in 6.2 mi SSE 11.5 mph - N/A   Partly Cloudy
5:20 AM 32.0 °F 24.8 °F 23.0 °F 69% 29.95 in 6.2 mi South 8.1 mph - N/A   Partly Cloudy
5:50 AM 30.2 °F 21.9 °F 23.0 °F 75% 29.95 in 6.2 mi SSE 9.2 mph - N/A   Partly Cloudy
6:20 AM 32.0 °F 24.2 °F 24.8 °F 75% 29.98 in 6.2 mi SE 9.2 mph - N/A   Partly Cloudy
6:50 AM 32.0 °F 23.6 °F 24.8 °F 75% 29.98 in 6.2 mi SSE 10.4 mph - N/A   Partly Cloudy
7:20 AM 32.0 °F 22.5 °F 26.6 °F 80% 29.98 in 6.2 mi SSE 12.7 mph - N/A   Partly Cloudy
7:50 AM 33.8 °F 25.3 °F 24.8 °F 70% 30.01 in 6.2 mi SSE 11.5 mph - N/A   Partly Cloudy
8:20 AM 32.0 °F 24.2 °F 26.6 °F 80% 30.01 in 6.2 mi SSE 9.2 mph - N/A Snow Light Snow Showers
8:50 AM 33.8 °F 27.0 °F 26.6 °F 75% 30.04 in 6.2 mi ESE 8.1 mph - N/A Snow Light Snow Showers
9:20 AM 35.6 °F 30.7 °F 24.8 °F 65% 30.04 in 6.2 mi SE 5.8 mph - N/A Snow Light Snow Showers
9:50 AM 37.4 °F 30.3 °F 23.0 °F 56% 30.04 in 6.2 mi ESE 10.4 mph - N/A   Partly Cloudy
10:20 AM 35.6 °F 27.5 °F 21.2 °F 56% 30.04 in 6.2 mi ESE 11.5 mph - N/A   Partly Cloudy
10:50 AM 35.6 °F 27.1 °F 21.2 °F 56% 30.06 in 6.2 mi ESE 12.7 mph - N/A   Partly Cloudy
11:20 AM 37.4 °F 29.8 °F 19.4 °F 48% 30.06 in 6.2 mi East 11.5 mph - N/A   Partly Cloudy
11:50 AM 37.4 °F 30.3 °F 21.2 °F 52% 30.06 in 6.2 mi ESE 10.4 mph - N/A   Partly Cloudy
12:20 PM 37.4 °F 30.3 °F 19.4 °F 48% 30.06 in 6.2 mi East 10.4 mph - N/A   Partly Cloudy
1:20 PM 35.6 °F 28.0 °F 19.4 °F 52% 30.09 in 6.2 mi East 10.4 mph - N/A   Partly Cloudy
1:50 PM 37.4 °F 30.3 °F 21.2 °F 52% 30.09 in 6.2 mi ENE 10.4 mph - N/A   Scattered Clouds
2:20 PM 35.6 °F 29.2 °F 21.2 °F 56% 30.09 in 6.2 mi East 8.1 mph - N/A   Scattered Clouds
2:50 PM 37.4 °F 29.8 °F 21.2 °F 52% 30.09 in 6.2 mi East 11.5 mph - N/A   Scattered Clouds
3:20 PM 37.4 °F 29.8 °F 23.0 °F 56% 30.09 in 6.2 mi ENE 11.5 mph - N/A   Scattered Clouds
3:50 PM 35.6 °F 29.9 °F 23.0 °F 60% 30.09 in 6.2 mi NE 6.9 mph - N/A   Scattered Clouds
4:20 PM 37.4 °F 30.3 °F 23.0 °F 56% 30.09 in 6.2 mi ENE 10.4 mph - N/A   Scattered Clouds
4:50 PM 35.6 °F 27.1 °F 23.0 °F 60% 30.09 in 6.2 mi ENE 12.7 mph - N/A   Partly Cloudy
5:20 PM 35.6 °F 27.1 °F 24.8 °F 65% 30.09 in 6.2 mi ENE 12.7 mph - N/A   Partly Cloudy
5:50 PM 35.6 °F 29.2 °F 24.8 °F 65% 30.12 in 6.2 mi East 8.1 mph - N/A   Partly Cloudy
6:20 PM 35.6 °F 27.5 °F 24.8 °F 65% 30.12 in 6.2 mi ENE 11.5 mph - N/A   Partly Cloudy
7:20 PM 35.6 °F 26.6 °F 24.8 °F 65% 30.12 in 6.2 mi ENE 13.8 mph - N/A   Scattered Clouds
7:50 PM 35.6 °F 26.6 °F 24.8 °F 65% 30.12 in 6.2 mi East 13.8 mph - N/A   Scattered Clouds
8:20 PM 33.8 °F 25.3 °F 24.8 °F 70% 30.12 in 6.2 mi East 11.5 mph - N/A   Scattered Clouds
8:50 PM 35.6 °F 27.1 °F 24.8 °F 65% 30.12 in 6.2 mi East 12.7 mph - N/A   Scattered Clouds
9:20 PM 35.6 °F 27.1 °F 24.8 °F 65% 30.12 in 6.2 mi East 12.7 mph - N/A   Mostly Cloudy
9:50 PM 35.6 °F 28.6 °F 23.0 °F 60% 30.12 in 6.2 mi East 9.2 mph - N/A   Scattered Clouds
10:20 PM 33.8 °F 26.4 °F 24.8 °F 70% 30.12 in 6.2 mi East 9.2 mph - N/A   Mostly Cloudy
10:50 PM 32.0 °F - 24.8 °F 75% 30.12 in 6.2 mi East 2.3 mph - N/A   Mostly Cloudy
11:20 PM 33.8 °F - 24.8 °F 70% 30.12 in 6.2 mi East 2.3 mph - N/A   Mostly Cloudy
11:50 PM 33.8 °F - 26.6 °F 75% 30.15 in 6.2 mi SE 1.2 mph - N/A   Mostly Cloudy